Regional Weather Roundup
Issued by NWS

Home | Current Version | Previous Version | Text Only | Print | Product List | Glossary Off
Versions: 1 2 3 4 5 6 7 8 9 10 11 12 13 14 15 16 17 18 19 20 21 22 23 24 25 26 27

000
ASUS45 KCYS 231810
RWRWY

WYOMING REGIONAL WEATHER ROUNDUP
NATIONAL WEATHER SERVICE CHEYENNE WY
1200 PM MDT SAT SEP 23 2017

NOTE:  "FAIR" INDICATES FEW OR NO CLOUDS BELOW 12,000 FEET
WITH NO SIGNIFICANT WEATHER AND/OR OBSTRUCTIONS TO VISIBILITY.

WYZ001-231900-
YELLOWSTONE NATIONAL PARK

CITY           SKY/WX    TMP DP  RH WIND       PRES   REMARKS
LK YELLOWSTONE NOT AVBL
W YELLOWSTONE  NOT AVBL

$$
WYZ002>013-054>058-071-098>099-231900-
NORTHERN WYOMING

CITY           SKY/WX    TMP DP  RH WIND       PRES   REMARKS
JACKSON        PTSUNNY   44  29  55 N5        30.01S
CODY           CLOUDY    39  37  92 N6        30.08S WCI  35
GREYBULL       CLOUDY    45  41  86 NW10      30.05S
6HR MIN TEMP:  41; 6HR MAX TEMP:  45; 6HR PCP: TRACE;

WORLAND        CLOUDY    43  41  93 N6        30.04F
6HR MIN TEMP:  40; 6HR MAX TEMP:  43; 6HR PCP:  0.10;

SHERIDAN       CLOUDY    43  41  93 N8        30.08S
6HR MIN TEMP:  41; 6HR MAX TEMP:  43; 6HR PCP:  0.07;

BUFFALO        CLOUDY    40  37  89 CALM      30.07F
6HR MIN TEMP:  38; 6HR MAX TEMP:  42; 6HR PCP:  0.03;

GILLETTE       LGT RAIN  41  40  96 N5        30.06R
6HR MIN TEMP:  39; 6HR MAX TEMP:  42; 6HR PCP:  0.05;

HULETT         CLOUDY    43  39  87 NE6       30.07F
NEWCASTLE      CLOUDY    45  41  87 NW9G17    30.03S

$$
WYZ014>020-022>026-101>103-231900-
CENTRAL WYOMING

CITY           SKY/WX    TMP DP  RH WIND       PRES   REMARKS
BIG PINEY      FAIR      44  32  62 N7        29.98F
6HR MIN TEMP:  28; 6HR MAX TEMP:  44;

PINEDALE       FAIR      41  32  70 NW6       29.99F
DUBOIS         CLOUDY    37  34  87 SE8       30.00S WCI  31
LANDER           N/A    N/A N/A N/A MISG      30.00F
RIVERTON       CLOUDY    40  39  97 NE12      30.00F WCI  33
6HR MIN TEMP:  39; 6HR MAX TEMP:  41;

CASPER         LGT RAIN  42  40  92 NE10      30.01F
6HR MIN TEMP:  38; 6HR MAX TEMP:  42; 6HR PCP:  0.08;

DOUGLAS        LGT RAIN  45  41  86 SE6       30.03F
6HR MIN TEMP:  42; 6HR MAX TEMP:  46; 6HR PCP:  0.03;


$$
WYZ021-027>030-104>119-231900-
SOUTHERN WYOMING

CITY           SKY/WX    TMP DP  RH WIND       PRES   REMARKS
EVANSTON       CLOUDY    39  34  82 N10       29.96F WCI  32
6HR MIN TEMP:  30; 6HR MAX TEMP:  39;

KEMMERER         N/A     41  32  70 NE5       29.98F
FORT BRIDGER   CLOUDY    42  40  92 NE7       29.99S
ROCK SPRINGS   CLOUDY    41  39  93 E10       29.98R
6HR MIN TEMP:  36; 6HR MAX TEMP:  41;

DIXON          FAIR      52  38  60 W7        29.97S
RAWLINS        CLOUDY    48  41  76 E9        29.98F
6HR MIN TEMP:  40; 6HR MAX TEMP:  48; 6HR PCP: TRACE;

SARATOGA       LGT RAIN  45  45 100 SE10G23   30.01R
LARAMIE        CLOUDY    45  38  76 NE7       30.01S
6HR MIN TEMP:  42; 6HR MAX TEMP:  46;

CHEYENNE       CLOUDY    46  38  73 N7        30.01S
6HR MIN TEMP:  40; 6HR MAX TEMP:  47;

TORRINGTON     CLOUDY    45  42  89 NE6       30.03S FOG
6HR MIN TEMP:  43; 6HR MAX TEMP:  46;

PINE BLUFFS    CLOUDY    43  41  93 MISG      30.02S FOG

$$




USA.gov is the U.S. government's official web portal to all federal, state and local government web resources and services.